N2NET Weather Reports


Display with metric or nautical units.
time (UTC)temp
F
wind
direction
speed
MPH
gust
MPH
rain 1hr
in
rain 24hr
in
rain mn
in
humidity
%
barometer
mb
20260901203059 71 0 0.0 3.0 0.06 0.19 0.16 100 1015.5
20260901201604 72 0 0.0 2.0 0.06 0.19 0.16 100 1015.4
20260901194607 73 118 1.0 9.0 0.00 0.13 0.10 100 1015.3
20260901193109 73 108 2.0 4.0 0.00 0.13 0.10 100 1015.2
20260901191616 73 135 3.0 7.0 0.00 0.13 0.10 100 1015.1
20260901190135 74 198 1.0 6.0 0.00 0.13 0.10 2 1015.2
20260901184605 75 49 3.0 8.0 0.00 0.13 0.10 10 1015.0
20260901183108 76 116 1.0 5.0 0.00 0.13 0.10 24 1015.0
20260901181606 76 77 1.0 4.0 0.00 0.13 0.10 42 1014.9
20260901180108 78 26 1.0 5.0 0.00 0.13 0.10 60 1014.8
20260901174602 80 127 2.0 5.0 0.00 0.13 0.10 65 1014.7
20260901173105 80 309 1.0 3.0 0.00 0.13 0.10 65 1014.5
20260901171636 78 127 1.0 3.0 0.00 0.13 0.10 60 1014.5
20260901170108 77 201 1.0 3.0 0.00 0.13 0.10 52 1014.5
20260901164618 77 143 1.0 4.0 0.00 0.13 0.10 8 1014.7
20260901163117 75 245 0.0 2.0 0.00 0.13 0.10 100 1015.2
20260901161613 70 20 1.0 2.0 0.00 0.13 0.10 100 1015.4
20260901160107 68 135 0.0 1.0 0.00 0.13 0.10 100 1015.6
20260901154603 68 0 0.0 2.0 0.00 0.13 0.10 100 1015.9
20260901153104 67 0 0.0 1.0 0.00 0.13 0.10 100 1016.0
20260901151602 67 0 0.0 0.0 0.00 0.13 0.10 100 1016.1
20260901150105 66 0 0.0 0.0 0.00 0.13 0.10 100 1016.2
20260901144604 65 0 0.0 2.0 0.00 0.13 0.10 100 1016.0
20260901143104 66 0 0.0 1.0 0.00 0.13 0.10 100 1016.0
20260901141610 66 0 0.0 0.0 0.00 0.13 0.10 100 1016.1
20260901140104 65 0 0.0 0.0 0.00 0.13 0.10 100 1016.0
20260901134603 65 0 0.0 0.0 0.01 0.13 0.10 100 1016.0
20260901133109 64 0 0.0 0.0 0.03 0.13 0.10 100 1016.0
20260901131601 63 0 0.0 0.0 0.07 0.13 0.10 100 1016.1
20260901130108 63 39 1.0 2.0 0.08 0.13 0.10 100 1016.2
20260901124603 62 0 0.0 1.0 0.07 0.12 0.09 100 1016.5
20260901123104 62 0 0.0 1.0 0.05 0.10 0.07 100 1016.3
20260901121608 62 0 0.0 0.0 0.01 0.06 0.03 100 1016.3
20260901120106 62 0 0.0 0.0 0.00 0.05 0.02 100 1016.3
20260901114604 62 0 0.0 0.0 0.00 0.05 0.02 100 1016.2
20260901113106 62 0 0.0 0.0 0.00 0.05 0.02 100 1016.1
20260901111611 62 0 0.0 0.0 0.00 0.05 0.02 100 1016.0
20260901110100 61 0 0.0 2.0 0.01 0.05 0.02 100 1016.0
20260901104602 61 0 0.0 0.0 0.01 0.05 0.02 100 1016.1
20260901103106 61 0 0.0 0.0 0.01 0.05 0.02 100 1016.0
20260901101603 61 0 0.0 0.0 0.01 0.05 0.02 100 1016.0
20260901100107 61 0 0.0 0.0 0.00 0.04 0.01 100 1016.0
20260901094603 61 0 0.0 0.0 0.00 0.04 0.01 100 1016.0
20260901093103 61 0 0.0 0.0 0.00 0.04 0.01 100 1016.1
20260901091608 62 0 0.0 0.0 0.00 0.04 0.01 100 1016.2
20260901090101 62 0 0.0 0.0 0.00 0.04 0.01 100 1016.2
20260901084605 62 0 0.0 0.0 0.00 0.04 0.01 100 1016.2
20260901083101 62 0 0.0 0.0 0.00 0.04 0.01 100 1016.4
20260901081558 62 0 0.0 0.0 0.00 0.04 0.01 100 1016.5
20260901080113 62 0 0.0 0.0 0.00 0.04 0.01 100 1016.4
20260901074601 62 0 0.0 0.0 0.00 0.04 0.01 100 1016.6
20260901073101 62 0 0.0 0.0 0.00 0.04 0.01 100 1016.8
20260901071606 62 0 0.0 0.0 0.00 0.04 0.01 100 1016.8
20260901070106 62 0 0.0 0.0 0.00 0.04 0.01 100 1017.0
20260901064620 62 0 0.0 0.0 0.00 0.04 0.01 100 1017.0
20260901063139 61 0 0.0 0.0 0.00 0.04 0.01 100 1017.1
20260901061603 62 0 0.0 0.0 0.00 0.04 0.01 100 1017.2
20260901060104 61 0 0.0 0.0 0.00 0.04 0.01 100 1017.4
20260901054604 62 0 0.0 0.0 0.00 0.04 0.01 100 1017.5
20260901053115 62 0 0.0 0.0 0.01 0.04 0.01 100 1017.5
20260901051603 62 0 0.0 0.0 0.01 0.04 0.01 100 1017.7
20260901050107 62 0 0.0 0.0 0.01 0.04 0.01 100 1017.6
20260901044601 62 0 0.0 0.0 0.01 0.04 0.01 100 1017.9
20260901043105 62 0 0.0 0.0 0.00 0.03 0.00 100 1017.9
20260901041602 62 0 0.0 0.0 0.00 0.03 0.00 100 1017.9
20260901040104 62 0 0.0 0.0 0.00 0.03 0.00 100 1017.9
20260901034605 62 0 0.0 0.0 0.00 0.03 0.03 100 1018.0
20260901033103 62 0 0.0 0.0 0.00 0.03 0.03 100 1018.1
20260901031558 62 0 0.0 0.0 0.00 0.03 0.03 100 1018.2
20260901030109 62 0 0.0 0.0 0.00 0.03 0.03 100 1018.4
20260901024602 62 0 0.0 0.0 0.00 0.03 0.03 100 1018.5
20260901023106 62 0 0.0 0.0 0.00 0.03 0.03 100 1018.5
20260901021602 62 0 0.0 0.0 0.00 0.03 0.03 100 1018.5
20260901020058 62 0 0.0 0.0 0.00 0.03 0.03 100 1018.5
20260901014606 63 0 0.0 0.0 0.00 0.03 0.03 100 1018.7
20260901013109 63 0 0.0 0.0 0.00 0.03 0.03 100 1018.5
20260901011603 63 0 0.0 0.0 0.01 0.03 0.03 100 1018.5
20260901010105 63 0 0.0 0.0 0.02 0.03 0.03 100 1018.6
20260901004607 64 0 0.0 0.0 0.03 0.03 0.03 100 1018.6
20260901003109 64 0 0.0 0.0 0.03 0.03 0.03 100 1018.7
20260901001601 65 0 0.0 0.0 0.02 0.02 0.02 100 1018.6
20260831234606 66 0 0.0 0.0 0.00 0.00 0.00 100 1018.6
20260831233104 66 0 0.0 0.0 0.00 0.00 0.00 100 1018.6
20260831231615 67 0 0.0 0.0 0.00 0.00 0.00 100 1018.8
20260831230101 67 0 0.0 0.0 0.00 0.00 0.00 100 1018.9
20260831224605 67 0 0.0 0.0 0.00 0.00 0.00 100 1019.0
20260831223110 68 0 0.0 0.0 0.00 0.00 0.00 100 1019.1
20260831221603 68 0 0.0 0.0 0.00 0.00 0.00 100 1019.2
20260831220104 68 0 0.0 0.0 0.00 0.00 0.00 100 1019.0
20260831214559 68 0 0.0 0.0 0.00 0.00 0.00 100 1019.2
20260831213102 68 0 0.0 0.0 0.00 0.00 0.00 100 1019.3
20260831211624 69 0 0.0 1.0 0.00 0.00 0.00 100 1019.2
20260831210105 69 0 0.0 0.0 0.00 0.00 0.00 100 1019.3
20260831204603 69 0 0.0 0.0 0.00 0.00 0.00 11 1019.3